Goldsboro, NC

1:11 AM EDT on June 28, 2017 (GMT -0400)
Seymour Johnson Air Force Base

Weather History for KGSB - July, 2013

Change the Weather History Date:

Saturday, July 6, 2013

  Actual Average Record
Temperature  
Mean Temperature 79 °F -  
Max Temperature 89 °F 87 °F 99 °F (2012)
Min Temperature 69 °F 69 °F 60 °F (2014)
Cooling Degree Days 14    
Growing Degree Days 29 (Base 50)    
Moisture  
Dew Point 72 °F    
Average Humidity 75    
Maximum Humidity 98    
Minimum Humidity 52    
Precipitation  
Precipitation 0.00 in - - ()
Sea Level Pressure  
Sea Level Pressure 30.21 in    
Wind  
Wind Speed 5 mph (SSE)    
Max Wind Speed 10 mph    
Max Gust Speed -    
Visibility 8 miles    
Events      
Averages and records for this station are not official NWS values.
T = Trace of Precipitation, MM = Missing Value Source: NWS Daily Summary

Daily Weather History Graph

Daily Weather History Graph

Search for Another Location

Airport or City:

Trip Planner

Search our weather history database for the weather conditions in past years. The results will help you decide how hot, cold, wet, or windy it might be!

Date:

Astronomy

Jul. 06, 2013 Rise Set
Actual Time 6:03 AM EDT 8:29 PM EDT
Civil Twilight 5:33 AM EDT 8:59 PM EDT
Nautical Twilight 4:57 AM EDT 9:35 PM EDT
Astronomical Twilight 4:16 AM EDT 10:16 PM EDT
Moon 4:45 AM EDT (7/6) 7:12 PM EDT (7/6)
Length of Visible Light 15h 25m
Length of Day
14h 26m
Waning Crescent, 2% of the Moon is Illuminated
Jul 6
Waning Crescent
Jul 8
New
Jul 15
First Quarter
Jul 22
Full
Jul 29
Last Quarter

Hourly Weather History & Observations

Time (EDT) Temp. Heat Index Dew Point Humidity Pressure Visibility Wind Dir Wind Speed Gust Speed Precip Events Conditions
12:58 AM 73.9 °F - 73.0 °F 97% 30.26 in 10.0 mi SSE 2.3 mph - N/A   Clear
1:58 AM 73.2 °F - 72.7 °F 98% 30.23 in 10.0 mi Calm Calm - N/A   Clear
2:58 AM 72.7 °F - 72.1 °F 98% 30.23 in 10.0 mi Calm Calm - N/A   Clear
3:58 AM 71.4 °F - 70.9 °F 98% 30.22 in 10.0 mi East 4.6 mph - N/A   Clear
4:58 AM 71.1 °F - 70.5 °F 98% 30.22 in 10.0 mi East 2.3 mph - N/A   Clear
5:58 AM 69.8 °F - 69.3 °F 98% 30.24 in 10.0 mi East 3.5 mph - N/A   Clear
6:58 AM 71.6 °F - 70.9 °F 98% 30.25 in 9.0 mi East 2.3 mph - N/A   Clear
7:58 AM 75.7 °F - 74.7 °F 96% 30.26 in 10.0 mi Variable 2.3 mph - N/A   Clear
8:58 AM 78.4 °F - 75.6 °F 91% 30.27 in 10.0 mi South 4.6 mph - N/A   Clear
9:58 AM 82.2 °F 88.0 °F 73.6 °F 75% 30.26 in 10.0 mi Variable 6.9 mph - N/A   Mostly Cloudy
10:07 AM 82.4 °F 88.2 °F 73.4 °F 74% 30.25 in 10.0 mi South 5.8 mph - N/A   Mostly Cloudy
10:10 AM 82.4 °F 88.2 °F 73.4 °F 74% 30.25 in 10.0 mi SSW 6.9 mph - N/A   Mostly Cloudy
10:19 AM 82.4 °F 87.2 °F 71.6 °F 70% 30.25 in 10.0 mi South 5.8 mph - N/A   Scattered Clouds
10:46 AM 82.4 °F 87.2 °F 71.6 °F 70% 30.25 in 10.0 mi SSW 8.1 mph - N/A   Mostly Cloudy
10:49 AM 82.4 °F 87.2 °F 71.6 °F 70% 30.25 in 10.0 mi SSW 5.8 mph - N/A   Scattered Clouds
10:58 AM 83.5 °F 88.2 °F 70.9 °F 66% 30.26 in 10.0 mi Variable 2.3 mph - N/A   Scattered Clouds
11:58 AM 85.5 °F 90.8 °F 70.9 °F 62% 30.25 in 10.0 mi Variable 4.6 mph - N/A   Mostly Cloudy
12:58 PM 87.3 °F 93.2 °F 71.4 °F 59% 30.24 in 10.0 mi SW 6.9 mph - N/A   Scattered Clouds
1:58 PM 87.3 °F 93.2 °F 71.2 °F 59% 30.22 in 10.0 mi South 6.9 mph - N/A   Scattered Clouds
2:58 PM 89.2 °F 94.1 °F 69.6 °F 52% 30.19 in 10.0 mi SSW 6.9 mph - N/A   Partly Cloudy
3:58 PM 86.7 °F 94.1 °F 73.2 °F 64% 30.17 in 10.0 mi South 9.2 mph - N/A   Clear
4:58 PM 88.9 °F 95.6 °F 72.0 °F 57% 30.16 in 10.0 mi SE 10.4 mph - N/A   Partly Cloudy
5:31 PM 86.0 °F 93.4 °F 73.4 °F 66% 30.15 in 2.5 mi SSE 6.9 mph - N/A   Haze
5:34 PM 86.0 °F 93.4 °F 73.4 °F 66% 30.14 in 1.8 mi SSE 6.9 mph - N/A   Haze
5:37 PM 86.0 °F 93.4 °F 73.4 °F 66% 30.14 in 1.5 mi SSE 8.1 mph - N/A   Haze
5:46 PM 86.0 °F 93.4 °F 73.4 °F 66% 30.14 in 1.8 mi SSE 10.4 mph - N/A   Haze
5:55 PM 86.0 °F 91.8 °F 71.6 °F 62% 30.14 in 1.5 mi SSE 9.2 mph - N/A   Haze
5:58 PM 85.6 °F 91.8 °F 72.1 °F 64% 30.15 in 1.8 mi SE 9.2 mph - N/A   Haze
6:01 PM 86.0 °F 91.8 °F 71.6 °F 62% 30.14 in 2.5 mi SSE 8.1 mph - N/A   Haze
6:04 PM 86.0 °F 91.8 °F 71.6 °F 62% 30.14 in 4.0 mi SSE 9.2 mph - N/A   Haze
6:58 PM 86.2 °F 91.4 °F 70.7 °F 60% 30.15 in 10.0 mi SSE 9.2 mph - N/A   Clear
7:58 PM 83.1 °F 87.1 °F 70.0 °F 64% 30.16 in 10.0 mi South 5.8 mph - N/A   Clear
8:58 PM 79.7 °F - 70.2 °F 73% 30.17 in 10.0 mi SSE 4.6 mph - N/A   Clear
9:58 PM 77.7 °F - 71.4 °F 81% 30.19 in 10.0 mi South 5.8 mph - N/A   Clear
10:58 PM 76.1 °F - 72.1 °F 87% 30.21 in 10.0 mi SSW 3.5 mph - N/A   Clear
11:58 PM 74.8 °F - 72.3 °F 92% 30.21 in 10.0 mi SSW 2.3 mph - N/A   Clear